RYR3LL EGNX-LEPA

Flight info

Callsign RYR3LL
Flight time 2h 12m
Altitude 35000
Route SAPCO Y53 DTY M605 SILVA Q41 COWLY DCT GWC UN859 SOPIL DCT BALAN DCT EVPOK DCT NARAK DCT GAI DCT LOMRA DCT ROCAN DCT IBRAP DCT LUKEV DCT LORES
Aircraft A320/M-SDE3FGHIRWY/LB1

Departure

Time 2026-05-04 15:58
Airport East Midlands Airport (EGNX)

Arrival

Time 2026-05-04 18:10
Airport Palma de Mallorca Airport (LEPA)
Time Latitude Longitude Altitude Speed Heading
2026-05-04 15:20 52.82728 -1.32870 301 ft 0 kts 178°
2026-05-04 15:46 52.82737 -1.32870 302 ft 4 kts 178°
2026-05-04 15:46 52.82764 -1.32872 300 ft 4 kts 178°
2026-05-04 15:47 52.82785 -1.32872 300 ft 4 kts 184°
2026-05-04 15:47 52.82811 -1.32864 302 ft 4 kts 199°
2026-05-04 15:47 52.82833 -1.32856 300 ft 2 kts 179°
2026-05-04 15:47 52.82854 -1.32857 301 ft 0 kts 178°
2026-05-04 15:52 52.82851 -1.32857 301 ft 1 kts 178°
2026-05-04 15:52 52.82835 -1.32857 300 ft 3 kts 184°
2026-05-04 15:52 52.82810 -1.32877 302 ft 5 kts 217°
2026-05-04 15:52 52.82796 -1.32935 300 ft 6 kts 259°
2026-05-04 15:53 52.82793 -1.33017 300 ft 8 kts 268°
2026-05-04 15:53 52.82793 -1.33116 300 ft 9 kts 281°
2026-05-04 15:53 52.82851 -1.33162 300 ft 11 kts 356°
2026-05-04 15:53 52.82918 -1.33207 301 ft 11 kts 301°
2026-05-04 15:54 52.82922 -1.33321 304 ft 9 kts 267°
2026-05-04 15:54 52.82919 -1.33426 305 ft 10 kts 267°
2026-05-04 15:54 52.82917 -1.33558 306 ft 13 kts 269°
2026-05-04 15:54 52.82914 -1.33717 304 ft 14 kts 268°
2026-05-04 15:55 52.82911 -1.33887 305 ft 16 kts 268°
2026-05-04 15:55 52.82907 -1.34090 300 ft 20 kts 267°
2026-05-04 15:55 52.82904 -1.34323 306 ft 17 kts 276°
2026-05-04 15:55 52.82906 -1.34488 307 ft 13 kts 269°
2026-05-04 15:56 52.82917 -1.34634 304 ft 11 kts 316°
2026-05-04 15:56 52.82969 -1.34664 304 ft 8 kts 351°
2026-05-04 15:56 52.83032 -1.34653 303 ft 10 kts 19°
2026-05-04 15:56 52.83068 -1.34554 302 ft 12 kts 82°
2026-05-04 15:57 52.83070 -1.34498 301 ft 0 kts 88°
2026-05-04 15:57 52.83070 -1.34497 301 ft 1 kts 88°
2026-05-04 15:57 52.83077 -1.34100 303 ft 69 kts 89°
2026-05-04 15:57 52.83096 -1.32983 305 ft 124 kts 88°
2026-05-04 15:58 52.83125 -1.31317 385 ft 157 kts 89°
2026-05-04 15:58 52.83160 -1.29532 943 ft 154 kts 89°
2026-05-04 15:58 52.83098 -1.27756 1506 ft 157 kts 95°
2026-05-04 15:58 52.82968 -1.25873 1755 ft 176 kts 96°
2026-05-04 15:59 52.82682 -1.23778 1957 ft 199 kts 113°
2026-05-04 15:59 52.81865 -1.21782 2212 ft 223 kts 134°
2026-05-04 15:59 52.80719 -1.19865 2555 ft 247 kts 134°
2026-05-04 15:59 52.79485 -1.17766 3195 ft 258 kts 134°
2026-05-04 16:00 52.78187 -1.15669 3995 ft 264 kts 144°
2026-05-04 16:00 52.76480 -1.14619 4759 ft 268 kts 179°
2026-05-04 16:00 52.74689 -1.15326 5537 ft 267 kts 209°
2026-05-04 16:00 52.73642 -1.16383 6105 ft 267 kts 217°
2026-05-04 16:01 52.72192 -1.18318 6895 ft 269 kts 223°
2026-05-04 16:01 52.70797 -1.20402 7649 ft 272 kts 224°
2026-05-04 16:01 52.69388 -1.22510 8397 ft 275 kts 223°
2026-05-04 16:01 52.67932 -1.24610 8901 ft 280 kts 221°
2026-05-04 16:02 52.66439 -1.26677 9001 ft 280 kts 220°
2026-05-04 16:02 52.64926 -1.28699 9029 ft 279 kts 220°
2026-05-04 16:02 52.61885 -1.32667 9029 ft 279 kts 219°
2026-05-04 16:03 52.60354 -1.34636 9028 ft 279 kts 217°
2026-05-04 16:03 52.58629 -1.36108 9030 ft 281 kts 199°
2026-05-04 16:03 52.56698 -1.36638 9030 ft 284 kts 181°
2026-05-04 16:03 52.54751 -1.36149 9028 ft 286 kts 163°
2026-05-04 16:04 52.52894 -1.34928 9140 ft 290 kts 159°
2026-05-04 16:04 52.49122 -1.32355 10380 ft 305 kts 159°
2026-05-04 16:04 52.47088 -1.30982 10524 ft 328 kts 159°
2026-05-04 16:05 52.44915 -1.29517 10733 ft 346 kts 159°
2026-05-04 16:05 52.42667 -1.27997 11266 ft 352 kts 159°
2026-05-04 16:05 52.38095 -1.24894 12520 ft 359 kts 159°
2026-05-04 16:06 52.35780 -1.23326 13201 ft 362 kts 159°
2026-05-04 16:06 52.29506 -1.19094 14791 ft 370 kts 159°
2026-05-04 16:07 52.26318 -1.16953 15580 ft 372 kts 159°
2026-05-04 16:07 52.19127 -1.12130 17388 ft 377 kts 160°
2026-05-04 16:08 52.16614 -1.10909 17928 ft 379 kts 169°
2026-05-04 16:08 52.08771 -1.08366 19533 ft 387 kts 169°
2026-05-04 16:09 52.03457 -1.06628 20548 ft 393 kts 169°
2026-05-04 16:09 51.98065 -1.04867 21513 ft 397 kts 169°
2026-05-04 16:10 51.92638 -1.03114 22405 ft 402 kts 170°
2026-05-04 16:11 51.84273 -1.00962 23641 ft 409 kts 181°
2026-05-04 16:11 51.81437 -1.01371 23981 ft 410 kts 190°
2026-05-04 16:12 51.72963 -1.03591 25122 ft 412 kts 190°
2026-05-04 16:12 51.64411 -1.05741 26185 ft 417 kts 187°
2026-05-04 16:13 51.58597 -1.05264 26820 ft 424 kts 169°
2026-05-04 16:13 51.52875 -1.02929 27747 ft 421 kts 167°
2026-05-04 16:14 51.47245 -1.00603 28829 ft 415 kts 168°
2026-05-04 16:14 51.41681 -0.98333 29831 ft 410 kts 168°
2026-05-04 16:15 51.33429 -0.94972 31020 ft 407 kts 168°
2026-05-04 16:16 51.27947 -0.92735 31820 ft 405 kts 168°
2026-05-04 16:16 51.19777 -0.89414 32947 ft 403 kts 167°
2026-05-04 16:17 51.14339 -0.87224 33688 ft 403 kts 167°
2026-05-04 16:18 51.06192 -0.83960 34531 ft 403 kts 167°
2026-05-04 16:18 51.03466 -0.82863 34761 ft 404 kts 167°
2026-05-04 16:19 50.95235 -0.79552 34998 ft 417 kts 167°
2026-05-04 16:19 50.89530 -0.77286 35010 ft 425 kts 167°
2026-05-04 16:20 50.81450 -0.71509 35006 ft 429 kts 148°
2026-05-04 16:20 50.76435 -0.66390 35013 ft 429 kts 149°
2026-05-04 16:22 50.63872 -0.53676 35005 ft 430 kts 149°
2026-05-04 16:23 50.48769 -0.38497 35013 ft 429 kts 149°
2026-05-04 16:25 50.33652 -0.23396 35009 ft 430 kts 149°
2026-05-04 16:26 50.16009 -0.05916 34998 ft 430 kts 149°
2026-05-04 16:28 50.02419 0.02981 34972 ft 426 kts 167°
2026-05-04 16:29 49.82319 0.10890 35000 ft 425 kts 167°
2026-05-04 16:31 49.67973 0.16470 35011 ft 425 kts 167°
2026-05-04 16:32 49.50818 0.23392 35016 ft 425 kts 167°
2026-05-04 16:33 49.39381 0.27957 34990 ft 424 kts 167°
2026-05-04 16:34 49.30822 0.31366 34989 ft 424 kts 167°
2026-05-04 16:35 49.13793 0.38559 34979 ft 424 kts 166°
2026-05-04 16:36 49.05251 0.42130 34984 ft 423 kts 166°
2026-05-04 16:37 48.96750 0.45676 34969 ft 422 kts 166°
2026-05-04 16:38 48.85401 0.50399 34969 ft 422 kts 166°
2026-05-04 16:39 48.71205 0.56142 34967 ft 422 kts 167°
2026-05-04 16:40 48.59836 0.60550 34962 ft 422 kts 167°
2026-05-04 16:41 48.45600 0.66178 34967 ft 423 kts 167°
2026-05-04 16:43 48.31447 0.71970 34964 ft 423 kts 167°
2026-05-04 16:43 48.22926 0.75395 34962 ft 422 kts 167°
2026-05-04 16:45 48.05877 0.82081 34959 ft 422 kts 168°
2026-05-04 16:46 47.92652 0.87243 34942 ft 421 kts 168°
2026-05-04 16:47 47.81317 0.91669 34946 ft 421 kts 168°
2026-05-04 16:48 47.70009 0.96040 34957 ft 419 kts 168°
2026-05-04 16:49 47.58745 1.00382 34936 ft 418 kts 168°
2026-05-04 16:50 47.47522 1.04665 34954 ft 416 kts 168°
2026-05-04 16:51 47.41883 1.06337 34947 ft 411 kts 179°
2026-05-04 16:51 47.39030 1.06350 34950 ft 409 kts 183°
2026-05-04 16:52 47.27692 1.06085 34950 ft 408 kts 182°
2026-05-04 16:53 47.19190 1.05893 34946 ft 407 kts 182°
2026-05-04 16:54 47.07865 1.05630 34941 ft 406 kts 182°
2026-05-04 16:55 46.90934 1.05011 34935 ft 405 kts 184°
2026-05-04 16:56 46.76860 1.04397 34932 ft 404 kts 183°
2026-05-04 16:57 46.68464 1.04041 34936 ft 404 kts 183°
2026-05-04 16:58 46.57208 1.03579 34927 ft 404 kts 183°
2026-05-04 17:00 46.40520 1.07049 34929 ft 407 kts 170°
2026-05-04 17:01 46.26765 1.11630 34930 ft 406 kts 170°
2026-05-04 17:02 46.15737 1.15284 34918 ft 406 kts 170°
2026-05-04 17:03 46.07469 1.18020 34930 ft 406 kts 170°
2026-05-04 17:03 45.99208 1.20745 34920 ft 406 kts 170°
2026-05-04 17:04 45.88171 1.24365 34919 ft 407 kts 170°
2026-05-04 17:05 45.77120 1.27983 34928 ft 408 kts 170°
2026-05-04 17:06 45.68834 1.30682 34924 ft 407 kts 170°
2026-05-04 17:07 45.61463 1.33076 34932 ft 407 kts 170°
2026-05-04 17:07 45.55037 1.35160 34922 ft 407 kts 170°
2026-05-04 17:08 45.46758 1.37841 34935 ft 407 kts 171°
2026-05-04 17:09 45.41235 1.39613 34937 ft 406 kts 170°
2026-05-04 17:09 45.35722 1.41385 34935 ft 406 kts 170°
2026-05-04 17:10 45.21961 1.45803 34949 ft 405 kts 171°
2026-05-04 17:11 45.16452 1.47554 34952 ft 406 kts 171°
2026-05-04 17:12 45.08197 1.50188 34964 ft 405 kts 171°
2026-05-04 17:13 44.94477 1.54555 34912 ft 405 kts 171°
2026-05-04 17:14 44.83452 1.58045 34926 ft 407 kts 171°
2026-05-04 17:15 44.75161 1.60644 34937 ft 407 kts 171°
2026-05-04 17:16 44.64115 1.64122 34939 ft 406 kts 171°
2026-05-04 17:17 44.53067 1.67569 34940 ft 407 kts 171°
2026-05-04 17:18 44.42009 1.71020 34946 ft 407 kts 171°
2026-05-04 17:19 44.30977 1.74434 34947 ft 407 kts 171°
2026-05-04 17:20 44.19828 1.77145 34937 ft 406 kts 175°
2026-05-04 17:20 44.11427 1.78875 34943 ft 407 kts 174°
2026-05-04 17:21 44.00232 1.81355 34937 ft 408 kts 174°
2026-05-04 17:22 43.94612 1.82559 34944 ft 408 kts 176°
2026-05-04 17:23 43.83335 1.83674 34951 ft 406 kts 180°
2026-05-04 17:24 43.74878 1.84373 34943 ft 407 kts 179°
2026-05-04 17:25 43.63561 1.85505 34946 ft 407 kts 179°
2026-05-04 17:26 43.52243 1.86594 34951 ft 408 kts 179°
2026-05-04 17:27 43.38137 1.87947 34937 ft 408 kts 179°
2026-05-04 17:28 43.26808 1.89025 34947 ft 408 kts 179°
2026-05-04 17:29 43.09789 1.90661 34946 ft 409 kts 179°
2026-05-04 17:31 42.95590 1.92001 34919 ft 410 kts 180°
2026-05-04 17:32 42.82292 1.93252 34937 ft 411 kts 180°
2026-05-04 17:33 42.69923 1.94421 34952 ft 413 kts 180°
2026-05-04 17:34 42.59527 1.97491 34942 ft 419 kts 170°
2026-05-04 17:35 42.45451 2.02530 34947 ft 420 kts 171°
2026-05-04 17:36 42.39795 2.04567 34955 ft 420 kts 171°
2026-05-04 17:36 42.34138 2.06589 34951 ft 421 kts 171°
2026-05-04 17:37 42.28474 2.08596 34953 ft 421 kts 171°
2026-05-04 17:37 42.22810 2.10611 34950 ft 421 kts 171°
2026-05-04 17:38 42.17148 2.12610 34948 ft 421 kts 171°
2026-05-04 17:38 42.11483 2.14606 34948 ft 421 kts 171°
2026-05-04 17:39 42.02976 2.17612 34950 ft 421 kts 172°
2026-05-04 17:39 41.97306 2.19598 34949 ft 421 kts 171°
2026-05-04 17:40 41.91630 2.21599 34716 ft 422 kts 172°
2026-05-04 17:40 41.88777 2.22600 34475 ft 422 kts 172°
2026-05-04 17:40 41.85939 2.23594 34244 ft 422 kts 172°
2026-05-04 17:41 41.83099 2.24589 34010 ft 422 kts 172°
2026-05-04 17:41 41.80259 2.25583 33745 ft 422 kts 172°
2026-05-04 17:41 41.77453 2.26565 33471 ft 422 kts 172°
2026-05-04 17:41 41.74570 2.27569 33159 ft 423 kts 172°
2026-05-04 17:42 41.71712 2.28562 32899 ft 425 kts 172°
2026-05-04 17:42 41.68848 2.29559 32619 ft 425 kts 172°
2026-05-04 17:42 41.65985 2.30560 32355 ft 425 kts 172°
2026-05-04 17:42 41.63160 2.31548 32098 ft 425 kts 172°
2026-05-04 17:43 41.60295 2.32546 31839 ft 426 kts 172°
2026-05-04 17:43 41.57425 2.33544 31585 ft 427 kts 172°
2026-05-04 17:43 41.54539 2.34544 31331 ft 427 kts 172°
2026-05-04 17:43 41.51659 2.35539 31057 ft 429 kts 171°
2026-05-04 17:44 41.48764 2.36536 30809 ft 430 kts 171°
2026-05-04 17:44 41.45863 2.37538 30588 ft 431 kts 171°
2026-05-04 17:44 41.42964 2.38545 30338 ft 430 kts 171°
2026-05-04 17:44 41.40068 2.39552 30093 ft 429 kts 171°
2026-05-04 17:45 41.37184 2.40552 29828 ft 428 kts 171°
2026-05-04 17:45 41.34309 2.41547 29545 ft 426 kts 171°
2026-05-04 17:45 41.31445 2.42537 29241 ft 424 kts 171°
2026-05-04 17:45 41.28598 2.43520 28964 ft 422 kts 172°
2026-05-04 17:46 41.25757 2.44494 28695 ft 420 kts 172°
2026-05-04 17:46 41.22930 2.45464 28410 ft 418 kts 172°
2026-05-04 17:46 41.20117 2.46431 28139 ft 417 kts 172°
2026-05-04 17:46 41.17323 2.47392 27872 ft 415 kts 172°
2026-05-04 17:47 41.14526 2.48356 27599 ft 414 kts 172°
2026-05-04 17:47 41.11744 2.49313 27341 ft 412 kts 172°
2026-05-04 17:47 41.08973 2.50264 27065 ft 411 kts 172°
2026-05-04 17:47 41.06213 2.51208 26810 ft 409 kts 172°
2026-05-04 17:48 41.03452 2.52149 26555 ft 408 kts 172°
2026-05-04 17:48 41.00710 2.53080 26303 ft 406 kts 172°
2026-05-04 17:48 40.98902 2.53694 26139 ft 405 kts 172°
2026-05-04 17:48 40.95251 2.54933 25802 ft 404 kts 172°
2026-05-04 17:49 40.92538 2.55859 25556 ft 402 kts 172°
2026-05-04 17:49 40.89868 2.56773 25317 ft 401 kts 172°
2026-05-04 17:49 40.87136 2.57705 25055 ft 400 kts 172°
2026-05-04 17:49 40.84442 2.58624 24813 ft 399 kts 172°
2026-05-04 17:50 40.81763 2.59537 24577 ft 398 kts 172°
2026-05-04 17:50 40.79088 2.60442 24349 ft 396 kts 172°
2026-05-04 17:50 40.76455 2.61330 24117 ft 395 kts 172°
2026-05-04 17:50 40.73797 2.62229 23887 ft 394 kts 172°
2026-05-04 17:51 40.71144 2.63126 23657 ft 393 kts 172°
2026-05-04 17:51 40.68498 2.64018 23417 ft 392 kts 172°
2026-05-04 17:51 40.65860 2.64904 23143 ft 391 kts 172°
2026-05-04 17:51 40.63229 2.65789 22870 ft 389 kts 172°
2026-05-04 17:52 40.60609 2.66670 22601 ft 388 kts 172°
2026-05-04 17:52 40.57998 2.67549 22310 ft 387 kts 172°
2026-05-04 17:52 40.55393 2.68426 22050 ft 387 kts 172°
2026-05-04 17:52 40.52782 2.69304 21786 ft 386 kts 172°
2026-05-04 17:53 40.50208 2.70299 21471 ft 387 kts 165°
2026-05-04 17:53 40.47768 2.71856 20994 ft 391 kts 157°
2026-05-04 17:53 40.45393 2.73602 20500 ft 389 kts 157°
2026-05-04 17:53 40.43041 2.75322 19987 ft 387 kts 157°
2026-05-04 17:54 40.40688 2.77032 19494 ft 385 kts 156°
2026-05-04 17:54 40.38347 2.78725 18981 ft 384 kts 156°
2026-05-04 17:54 40.36011 2.80412 18473 ft 383 kts 156°
2026-05-04 17:54 40.33685 2.82091 17904 ft 382 kts 156°
2026-05-04 17:55 40.31357 2.83770 17359 ft 379 kts 156°
2026-05-04 17:55 40.29085 2.85414 17178 ft 367 kts 156°
2026-05-04 17:55 40.26891 2.87005 17040 ft 354 kts 156°
2026-05-04 17:55 40.24779 2.88532 16910 ft 341 kts 156°
2026-05-04 17:56 40.22735 2.90007 16781 ft 330 kts 156°
2026-05-04 17:56 40.20769 2.91424 16500 ft 324 kts 157°
2026-05-04 17:56 40.18788 2.92842 16067 ft 324 kts 157°
2026-05-04 17:56 40.16821 2.94250 15671 ft 323 kts 156°
2026-05-04 17:57 40.14857 2.95655 15375 ft 319 kts 156°
2026-05-04 17:57 40.12913 2.97046 15016 ft 317 kts 156°
2026-05-04 17:57 40.10981 2.98428 14659 ft 316 kts 156°
2026-05-04 17:57 40.09064 2.99802 14249 ft 311 kts 156°
2026-05-04 17:58 40.07170 3.01162 13620 ft 309 kts 156°
2026-05-04 17:58 40.05300 3.02502 13000 ft 304 kts 156°
2026-05-04 17:58 40.03463 3.03819 12571 ft 300 kts 156°
2026-05-04 17:58 40.01621 3.05134 12155 ft 302 kts 156°
2026-05-04 17:59 39.99774 3.06449 11763 ft 302 kts 156°
2026-05-04 17:59 39.97937 3.07758 11361 ft 302 kts 157°
2026-05-04 17:59 39.94263 3.10334 10661 ft 297 kts 162°
2026-05-04 18:00 39.92333 3.11096 10368 ft 286 kts 176°
2026-05-04 18:00 39.90378 3.11183 10060 ft 278 kts 190°
2026-05-04 18:00 39.88459 3.10934 9735 ft 276 kts 190°
2026-05-04 18:00 39.86544 3.10668 9061 ft 276 kts 194°
2026-05-04 18:01 39.84764 3.09830 8321 ft 270 kts 211°
2026-05-04 18:01 39.83110 3.08675 7614 ft 269 kts 211°
2026-05-04 18:01 39.81480 3.07530 7135 ft 262 kts 211°
2026-05-04 18:02 39.78436 3.05394 6470 ft 239 kts 211°
2026-05-04 18:02 39.77002 3.04388 6165 ft 229 kts 211°
2026-05-04 18:02 39.75633 3.03429 5863 ft 217 kts 211°
2026-05-04 18:02 39.74336 3.02521 5571 ft 207 kts 211°
2026-05-04 18:03 39.73101 3.01655 5301 ft 196 kts 211°
2026-05-04 18:03 39.71933 3.00836 5049 ft 186 kts 212°
2026-05-04 18:03 39.70836 3.00067 4844 ft 173 kts 211°
2026-05-04 18:03 39.69805 2.99343 4588 ft 164 kts 212°
2026-05-04 18:04 39.68823 2.98653 4361 ft 157 kts 212°
2026-05-04 18:04 39.67874 2.97985 4160 ft 152 kts 212°
2026-05-04 18:04 39.66081 2.96724 3777 ft 141 kts 212°
2026-05-04 18:05 39.65236 2.96103 3571 ft 139 kts 218°
2026-05-04 18:05 39.64614 2.95164 3396 ft 139 kts 235°
2026-05-04 18:05 39.64063 2.94130 3194 ft 139 kts 236°
2026-05-04 18:05 39.63536 2.93081 3005 ft 138 kts 238°
2026-05-04 18:06 39.62526 2.90983 2640 ft 137 kts 238°
2026-05-04 18:06 39.62034 2.89943 2472 ft 137 kts 237°
2026-05-04 18:06 39.61539 2.88895 2281 ft 136 kts 238°
2026-05-04 18:07 39.61044 2.87844 2098 ft 135 kts 237°
2026-05-04 18:07 39.60557 2.86811 1931 ft 135 kts 237°
2026-05-04 18:07 39.60070 2.85776 1748 ft 134 kts 237°
2026-05-04 18:07 39.59585 2.84746 1568 ft 134 kts 237°
2026-05-04 18:08 39.59100 2.83717 1383 ft 134 kts 236°
2026-05-04 18:08 39.58608 2.82672 1203 ft 135 kts 237°
2026-05-04 18:08 39.58118 2.81633 1019 ft 134 kts 236°
2026-05-04 18:08 39.57639 2.80618 852 ft 134 kts 237°
2026-05-04 18:09 39.57082 2.79506 665 ft 140 kts 234°
2026-05-04 18:09 39.56104 2.77388 277 ft 136 kts 238°
2026-05-04 18:10 39.55623 2.76353 127 ft 135 kts 240°
2026-05-04 18:10 39.55148 2.75343 41 ft 120 kts 238°
2026-05-04 18:10 39.54829 2.74659 37 ft 47 kts 239°
2026-05-04 18:10 39.54757 2.74506 38 ft 16 kts 238°
2026-05-04 18:11 39.54679 2.74343 38 ft 25 kts 238°
2026-05-04 18:11 39.54601 2.74170 38 ft 18 kts 238°
2026-05-04 18:11 39.54561 2.74026 38 ft 15 kts 260°
2026-05-04 18:11 39.54552 2.73892 38 ft 16 kts 268°
2026-05-04 18:12 39.54551 2.73803 38 ft 10 kts 271°
2026-05-04 18:12 39.54596 2.73755 38 ft 10 kts 24°
2026-05-04 18:12 39.54647 2.73827 38 ft 12 kts 58°
2026-05-04 18:12 39.54694 2.73926 38 ft 14 kts 58°
2026-05-04 18:13 39.54748 2.74041 38 ft 16 kts 59°
2026-05-04 18:13 39.54811 2.74122 38 ft 13 kts
2026-05-04 18:13 39.54949 2.74029 38 ft 13 kts 329°
2026-05-04 18:14 39.55034 2.73963 38 ft 15 kts 328°
2026-05-04 18:14 39.55131 2.73886 37 ft 18 kts 328°
2026-05-04 18:14 39.55242 2.73797 37 ft 20 kts 328°
2026-05-04 18:15 39.55472 2.73618 38 ft 16 kts 330°
2026-05-04 18:15 39.55518 2.73535 38 ft 6 kts 202°
2026-05-04 18:15 39.55474 2.73502 38 ft 9 kts 225°
2026-05-04 18:16 39.55434 2.73425 36 ft 12 kts 239°
2026-05-04 18:16 39.55404 2.73362 37 ft 13 kts 239°
2026-05-04 18:16 39.55351 2.73251 38 ft 16 kts 238°
2026-05-04 18:17 39.55217 2.72971 38 ft 20 kts 238°
2026-05-04 18:17 39.55152 2.72833 38 ft 13 kts 239°
2026-05-04 18:17 39.55072 2.72783 37 ft 6 kts 145°
2026-05-04 18:18 39.55057 2.72796 38 ft 1 kts 144°
2026-05-04 18:18 39.55054 2.72798 38 ft 0 kts 144°
2026-05-04 18:26 39.55055 2.72798 38 ft 0 kts 144°